Home > Weather > Da Nang > Past weeks

Flag for Vietnam Weather for the Past 2 Weeks in Da Nang, Vietnam

Now
75 °F

Scattered clouds.


Feels Like: 75 °F
Forecast: 69 / 89 °F
Wind: 7 mph from Southwest

Location: Da Nang Airport

Current Time: Feb 12, 2016 at 9:06:26 AM

Latest Report: Feb 12, 2016 at 8:30 AM


Visibility: 5 mi

Pressure: 29.95 "Hg

Humidity: 83%

Dew point: 70 °F

Location of Da NangLocation

Historic Weather in Da Nang — Graph

°F

Da Nang Temperature Yesterday

Maximum temperature yesterday: 84 °F (at 11:30 AM)
Minimum temperature yesterday: 64 °F (at 6:00 AM)
Average temperature yesterday: 75 °F

High & Low Weather Summary for the Past Weeks

 TemperatureHumidityPressure
High84 °F (Jan 31, 11:30 AM)100% (Jan 31, 4:00 AM)30.33 "Hg (Jan 31, 4:00 AM)
Low57 °F (Feb 8, 12:00 AM)58% (Feb 11, 1:00 PM)29.83 "Hg (Feb 11, 3:00 PM)
Average70 °F80%30.06 "Hg
* Reported Jan 28 8:00 AM — Feb 12 8:00 AM, Da Nang, Weather by CustomWeather, © 2016

Note: Actual official high and low records may vary slightly from our data, if they occured in-between our weather recording intervals... More about our weather records

Advertising

Da Nang Weather History for the Previous 24 Hours

 ConditionsComfort  
Time TempWeatherWind HumidityBarometerVisibility
8:00 AM
Fri, Feb 12
73 °FScattered clouds.6 mph89%29.95 "Hg4 mi
7:30 AM72 °FScattered clouds.7 mph88%29.95 "Hg4 mi
7:00 AM70 °FScattered clouds.6 mph94%29.92 "Hg4 mi
6:30 AM68 °FPassing clouds.2 mph94%29.92 "Hg4 mi
6:00 AM68 °FPassing clouds.7 mph94%29.92 "Hg4 mi
5:00 AM68 °FPassing clouds.5 mph94%29.89 "Hg4 mi
4:30 AM70 °FPassing clouds.5 mph88%29.89 "Hg4 mi
4:00 AM70 °FPassing clouds.2 mph94%29.89 "Hg4 mi
3:30 AM70 °FPassing clouds.6 mph88%29.89 "Hg4 mi
3:00 AM70 °FPassing clouds.5 mph88%29.89 "Hg4 mi
2:30 AM70 °FPassing clouds.3 mph94%29.89 "Hg4 mi
2:00 AM72 °FPassing clouds.5 mph88%29.89 "Hg4 mi
1:30 AM72 °FPassing clouds.5 mph94%29.89 "Hg4 mi
1:00 AM73 °FPassing clouds.3 mph94%29.89 "Hg4 mi
12:30 AM75 °FPassing clouds.1 mph89%29.89 "Hg4 mi
12:00 AM75 °FPassing clouds.1 mph89%29.92 "Hg4 mi
11:30 PM
Thu, Feb 11
77 °FPassing clouds.No wind83%29.92 "Hg4 mi
11:00 PM77 °FPassing clouds.No wind83%29.92 "Hg4 mi
10:30 PM77 °FPassing clouds.1 mph83%29.92 "Hg4 mi
10:00 PM77 °FPassing clouds.1 mph83%29.92 "Hg4 mi
9:30 PM75 °FPassing clouds.2 mph89%29.92 "Hg4 mi
9:00 PM75 °FPassing clouds.2 mph89%29.92 "Hg5 mi
8:30 PM75 °FPassing clouds.1 mph89%29.92 "Hg5 mi
8:00 PM75 °FPassing clouds.2 mph89%29.92 "Hg5 mi
7:30 PM73 °FPassing clouds.1 mph94%29.92 "Hg5 mi
7:00 PM73 °FPassing clouds.1 mph94%29.89 "Hg5 mi
6:30 PM73 °FPassing clouds.2 mph89%29.89 "Hg5 mi
6:00 PM75 °FPassing clouds.1 mph83%29.89 "Hg5 mi
5:30 PM75 °FScattered clouds.2 mph83%29.89 "Hg5 mi
5:00 PM77 °FScattered clouds.6 mph83%29.86 "HgN/A
4:30 PM77 °FScattered clouds.7 mph79%29.86 "HgN/A
4:00 PM79 °FScattered clouds.8 mph74%29.86 "HgN/A
3:30 PM81 °FScattered clouds.7 mph70%29.86 "HgN/A
3:00 PM82 °FScattered clouds.8 mph66%29.83 "HgN/A
2:30 PM84 °FScattered clouds.7 mph62%29.86 "HgN/A
2:00 PM84 °FScattered clouds.7 mph62%29.86 "HgN/A
1:30 PM84 °FScattered clouds.7 mph62%29.86 "HgN/A
1:00 PM84 °FScattered clouds.6 mph58%29.89 "HgN/A
12:30 PM84 °FScattered clouds.5 mph62%29.89 "HgN/A
12:00 PM84 °FScattered clouds.6 mph62%29.92 "HgN/A
11:30 AM84 °FScattered clouds.5 mph62%29.92 "HgN/A
11:00 AM82 °FScattered clouds.5 mph62%29.95 "HgN/A
10:30 AM82 °FScattered clouds.3 mph62%29.95 "HgN/A
10:00 AM81 °FScattered clouds.2 mph66%29.98 "HgN/A
9:00 AM77 °FScattered clouds.3 mph74%29.98 "Hg5 mi
Weather by CustomWeather, © 2016

See weather overviewHow to use our weather pages